Gunnison, CO

4:04 PM MDT on July 26, 2017 (GMT -0600)
Gunnison County

Weather History for KGUC - December, 2012

Change the Weather History Date:

Wednesday, December 19, 2012

  Actual Average Record
Temperature  
Mean Temperature 10 °F -  
Max Temperature 21 °F 22 °F 39 °F (2006)
Min Temperature -4 °F 0 °F -16 °F (2000)
Degree Days  
Heating Degree Days 56    
Moisture  
Dew Point 6 °F    
Average Humidity 69    
Maximum Humidity 93    
Minimum Humidity 43    
Precipitation  
Precipitation 0.00 in - - ()
Sea Level Pressure  
Sea Level Pressure 29.78 in    
Wind  
Wind Speed 6 mph (West)    
Max Wind Speed 24 mph    
Max Gust Speed 33 mph    
Visibility 8 miles    
Events      
Averages and records for this station are not official NWS values.
T = Trace of Precipitation, MM = Missing Value Source: NWS Daily Summary

Daily Weather History Graph

Daily Weather History Graph

Search for Another Location

Airport or City:

Trip Planner

Search our weather history database for the weather conditions in past years. The results will help you decide how hot, cold, wet, or windy it might be!

Date:

Astronomy

Dec. 19, 2012 Rise Set
Actual Time 7:20 AM MST 4:49 PM MST
Civil Twilight 6:51 AM MST 5:19 PM MST
Nautical Twilight 6:17 AM MST 5:52 PM MST
Astronomical Twilight 5:45 AM MST 6:24 PM MST
Moon 11:36 AM MST (12/19) No Moon Set
Length of Visible Light 10h 28m
Length of Day
9h 28m
Waxing Crescent, 45% of the Moon is Illuminated
Dec 19
Waxing Crescent
Dec 19
First Quarter
Dec 28
Full
Jan 4
Last Quarter
Jan 11
New

Hourly Weather History & Observations

Time (MST) Temp. Windchill Dew Point Humidity Pressure Visibility Wind Dir Wind Speed Gust Speed Precip Events Conditions
12:15 AM 17.6 °F - 10.4 °F 73% 29.59 in 10.0 mi Calm Calm - N/A   Mostly Cloudy
12:55 AM 15.8 °F - 8.6 °F 73% 29.57 in 10.0 mi Calm Calm - N/A   Overcast
1:15 AM 17.6 °F - 12.2 °F 79% 29.55 in 10.0 mi Calm Calm - N/A   Overcast
1:35 AM 17.6 °F - 14.0 °F 86% 29.54 in 10.0 mi Calm Calm - N/A   Mostly Cloudy
2:15 AM 17.6 °F - 14.0 °F 86% 29.54 in 10.0 mi Calm Calm - N/A   Overcast
2:35 AM 17.6 °F - 14.0 °F 86% 29.52 in 10.0 mi Calm Calm - N/A   Overcast
3:15 AM 17.6 °F 10.7 °F 15.8 °F 93% 29.50 in 1.5 mi SSE 4.6 mph - N/A   Overcast
3:35 AM 19.4 °F - 15.8 °F 86% 29.48 in 9.0 mi Calm Calm - N/A   Overcast
3:55 AM 19.4 °F 11.5 °F 17.6 °F 93% 29.50 in 3.0 mi SW 5.8 mph - N/A   Overcast
4:15 AM 19.4 °F 11.5 °F 17.6 °F 93% 29.53 in 1.2 mi WSW 5.8 mph - N/A   Overcast
4:35 AM 21.2 °F 13.6 °F 17.6 °F 86% 29.53 in 1.0 mi SSE 5.8 mph - N/A   Overcast
4:55 AM 21.2 °F 16.4 °F 17.6 °F 86% 29.51 in 1.8 mi SSE 3.5 mph - N/A   Overcast
5:15 AM 21.2 °F - 17.6 °F 86% 29.52 in 3.0 mi Calm Calm - N/A   Overcast
5:35 AM 21.2 °F - 15.8 °F 80% 29.53 in 2.5 mi Calm Calm - N/A   Overcast
5:55 AM 21.2 °F 14.9 °F 17.6 °F 86% 29.52 in 8.0 mi ENE 4.6 mph - N/A   Mostly Cloudy
6:15 AM 21.2 °F 14.9 °F 15.8 °F 80% 29.52 in 10.0 mi East 4.6 mph - N/A   Overcast
6:35 AM 21.2 °F 12.6 °F 15.8 °F 80% 29.50 in 10.0 mi NNE 6.9 mph - N/A   Overcast
7:15 AM 19.4 °F 11.5 °F 14.0 °F 80% 29.52 in 10.0 mi NW 5.8 mph - N/A   Partly Cloudy
7:35 AM 19.4 °F - 15.8 °F 86% 29.53 in 10.0 mi Calm Calm - N/A   Mostly Cloudy
7:55 AM 21.2 °F 16.4 °F 15.8 °F 80% 29.53 in 10.0 mi NNW 3.5 mph - N/A   Mostly Cloudy
8:35 AM 21.2 °F 16.4 °F 17.6 °F 86% 29.55 in 4.0 mi SW 3.5 mph - N/A   Overcast
8:55 AM 21.2 °F 11.7 °F 15.8 °F 80% 29.54 in 3.0 mi SW 8.1 mph - N/A   Overcast
9:35 AM 19.4 °F 4.1 °F 14.0 °F 80% 29.57 in 1.2 mi WSW 18.4 mph - N/A   Overcast
9:55 AM 17.6 °F 2.2 °F 12.2 °F 79% 29.59 in 2.5 mi SW 17.3 mph 27.6 mph N/A   Mostly Cloudy
10:15 AM 17.6 °F -0.3 °F 8.6 °F 68% 29.59 in 4.0 mi SW 24.2 mph 29.9 mph N/A   Mostly Cloudy
10:35 AM 15.8 °F -1.9 °F 8.6 °F 73% 29.62 in 2.0 mi SW 21.9 mph 33.4 mph N/A   Overcast
10:55 AM 15.8 °F -1.1 °F 10.4 °F 79% 29.65 in 1.8 mi SW 19.6 mph 32.2 mph N/A   Overcast
11:15 AM 15.8 °F -1.5 °F 8.6 °F 73% 29.66 in 5.0 mi SW 20.7 mph 29.9 mph N/A   Overcast
11:35 AM 15.8 °F 1.4 °F 6.8 °F 68% 29.68 in 8.0 mi WSW 13.8 mph 26.5 mph N/A   Overcast
11:55 AM 17.6 °F 2.7 °F 8.6 °F 68% 29.69 in 9.0 mi WSW 16.1 mph 23.0 mph N/A   Overcast
12:15 PM 17.6 °F 1.7 °F 10.4 °F 73% 29.70 in 10.0 mi WSW 18.4 mph 26.5 mph N/A   Mostly Cloudy
12:35 PM 17.6 °F 5.0 °F 8.6 °F 68% 29.72 in 10.0 mi SW 11.5 mph 29.9 mph N/A   Overcast
12:55 PM 19.4 °F 5.0 °F 12.2 °F 74% 29.74 in 10.0 mi SW 16.1 mph 20.7 mph N/A   Overcast
1:15 PM 19.4 °F 7.9 °F 8.6 °F 63% 29.77 in 10.0 mi WNW 10.4 mph 24.2 mph N/A   Overcast
1:35 PM 19.4 °F 7.2 °F 8.6 °F 63% 29.79 in 10.0 mi West 11.5 mph 29.9 mph N/A   Overcast
1:55 PM 19.4 °F 3.2 °F 6.8 °F 58% 29.80 in 10.0 mi WSW 20.7 mph 28.8 mph N/A   Overcast
2:35 PM 19.4 °F 7.9 °F 3.2 °F 49% 29.85 in 10.0 mi West 10.4 mph - N/A   Overcast
2:55 PM 19.4 °F 7.2 °F 6.8 °F 58% 29.87 in 10.0 mi WNW 11.5 mph 16.1 mph N/A   Mostly Cloudy
3:15 PM 17.6 °F 2.7 °F 3.2 °F 53% 29.88 in 10.0 mi West 16.1 mph 24.2 mph N/A   Partly Cloudy
3:35 PM 17.6 °F 2.7 °F 6.8 °F 63% 29.90 in 10.0 mi WSW 16.1 mph 21.9 mph N/A   Partly Cloudy
3:55 PM 17.6 °F 7.3 °F 5.0 °F 58% 29.92 in 10.0 mi WNW 8.1 mph - N/A   Mostly Cloudy
4:35 PM 15.8 °F 0.9 °F 1.4 °F 53% 29.96 in 10.0 mi West 15.0 mph 20.7 mph N/A   Partly Cloudy
4:55 PM 15.8 °F 1.4 °F -2.2 °F 45% 29.98 in 10.0 mi WNW 13.8 mph - N/A   Clear
5:15 PM 14.0 °F -2.5 °F -0.4 °F 53% 30.00 in 10.0 mi West 17.3 mph - N/A   Clear
5:35 PM 14.0 °F -2.0 °F -4.0 °F 45% 30.02 in 10.0 mi West 16.1 mph - N/A   Clear
6:15 PM 12.2 °F -0.2 °F -5.8 °F 45% 30.06 in 10.0 mi WSW 9.2 mph - N/A   Clear
7:35 PM 8.6 °F - -7.6 °F 48% 30.12 in 10.0 mi Calm Calm - N/A   Clear
7:55 PM 5.0 °F -6.9 °F -13.0 °F 43% 30.14 in 10.0 mi NNW 6.9 mph - N/A   Clear
8:15 PM 3.2 °F -6.2 °F -5.8 °F 66% 30.16 in 10.0 mi NNE 4.6 mph - N/A   Clear
8:35 PM 3.2 °F -4.2 °F -9.4 °F 56% 30.17 in 10.0 mi NNW 3.5 mph - N/A   Clear
8:55 PM 1.4 °F - -9.4 °F 61% 30.19 in 10.0 mi Calm Calm - N/A   Clear
9:15 PM 5.0 °F - -7.6 °F 56% 30.20 in 10.0 mi Calm Calm - N/A   Clear
9:35 PM 3.2 °F - -9.4 °F 56% 30.22 in 10.0 mi Calm Calm - N/A   Clear
9:55 PM 3.2 °F -7.8 °F -11.2 °F 51% 30.23 in 10.0 mi NE 5.8 mph - N/A   Clear
10:35 PM -0.4 °F -10.4 °F -16.6 °F 46% 30.26 in 10.0 mi North 4.6 mph - N/A   Clear
10:55 PM -0.4 °F -12.0 °F -11.2 °F 60% 30.27 in 10.0 mi North 5.8 mph - N/A   Clear
11:15 PM -2.2 °F -12.5 °F -14.8 °F 55% 30.28 in 9.0 mi North 4.6 mph - N/A   Clear
11:35 PM -4.0 °F -17.8 °F -16.6 °F 55% 30.30 in 10.0 mi NNW 6.9 mph - N/A   Clear